This is the latest recevied weather packets stored in our database for station/object WO0TEN. If no packets are shown the sender has not sent any weather packets the latest 1 day(s).
| Time | Temp. | Humidity | Pressure | Rain* | Wind** | Luminosity | Snow |
|---|---|---|---|---|---|---|---|
| 1778013067 | 31.11° C | 6% | - | 7.37 mm | 0.45 m/s, 248° | - | - |
| 1778012467 | 31.11° C | 6% | - | 7.37 mm | 0.89 m/s, 270° | - | - |
| 1778011868 | 31.11° C | 6% | - | 7.37 mm | 0.89 m/s, 0° | - | - |
| 1778011267 | 30.56° C | 6% | - | 7.37 mm | 0.89 m/s, 270° | - | - |
| 1778010667 | 31.11° C | 6% | - | 7.37 mm | 1.34 m/s, 23° | - | - |
| 1778010067 | 30.56° C | 6% | - | 7.37 mm | 1.79 m/s, 270° | - | - |
| 1778009468 | 30.56° C | 6% | - | 7.37 mm | 0.45 m/s, 203° | - | - |
| 1778008868 | 30° C | 6% | - | 7.37 mm | 0.45 m/s, 315° | - | - |
| 1778008267 | 29.44° C | 7% | - | 7.37 mm | 0.45 m/s, 248° | - | - |
| 1778007668 | 30° C | 7% | - | 7.37 mm | 1.34 m/s, 315° | - | - |
| 1778007067 | 28.89° C | 7% | - | 7.37 mm | 0.89 m/s, 135° | - | - |
| 1778006467 | 28.33° C | 7% | - | 7.37 mm | 1.34 m/s, 315° | - | - |
| 1778005867 | 28.33° C | 7% | - | 7.37 mm | 0.89 m/s, 315° | - | - |
| 1778005266 | 27.78° C | 7% | - | 7.37 mm | 1.34 m/s, 293° | - | - |
| 1778004668 | 27.22° C | 7% | - | 7.37 mm | 1.34 m/s, 270° | - | - |
| 1778004067 | 27.22° C | 7% | - | 7.37 mm | 0.89 m/s, 0° | - | - |
| 1778003467 | 26.11° C | 7% | - | 7.37 mm | 0.89 m/s, 293° | - | - |
| 1778002867 | 25.56° C | 8% | - | 7.37 mm | 0.89 m/s, 338° | - | - |
| 1778002269 | 25° C | 8% | - | 7.37 mm | 0.45 m/s, 23° | - | - |
| 1778001667 | 25° C | 8% | - | 7.37 mm | 0 m/s | - | - |
| 1778001067 | 24.44° C | 8% | - | 7.37 mm | 0.89 m/s, 248° | - | - |
| 1778000468 | 23.89° C | 8% | - | 7.37 mm | 1.34 m/s, 270° | - | - |
| 1777999868 | 23.89° C | 8% | - | 7.37 mm | 0.45 m/s, 315° | - | - |
| 1777999267 | 23.89° C | 8% | - | 7.37 mm | 0.89 m/s, 315° | - | - |
| 1777998668 | 23.33° C | 8% | - | 7.37 mm | 0 m/s | - | - |
* Rain since midnight (hover to see other rain measurements)
** Current wind speed in m/s (hover to see current wind gust speed)